Location: ČR
(50.0000°N, 15.0000°E)
Time: 12:48:33
(UTC+00:00)

ISS - Pass Details

Date: 28 September 2021
Orbit: 417 x 423 km, 51.6° (Epoch: 16 October)

Event Time Altitude Azimuth Distance (km) Brightness Sun altitude
Rises 18:57:44 0° 287° (WNW) 2,366 1.6 -21.7°
Reaches altitude 10° 18:59:50 10° 285° (WNW) 1,502 0.2 -22.0°
Enters shadow 19:02:31 50° 259° (W) 543 -3.0 -22.4°
